OMD418 MRLB-MHTG

Flight info

Callsign OMD418
Flight time 0h 45m
Altitude 36000
Route CAPUL2 IMOLA UM328 MGA UA502 LIBIS LIBIS1A
Aircraft B77W/H-SDE1E2E3FGHIJ2J3J4J5M1RWXY/LB1D1

Departure

Time 2026-05-07 20:32
Airport Daniel Oduber Quirós International Airport (MRLB)

Arrival

Time 2026-05-07 21:18
Airport Toncontín Airport (MHTG)
Time Latitude Longitude Altitude Speed Heading
2026-05-07 20:07 10.60041 -85.53397 279 ft 0 kts 340°
2026-05-07 20:25 10.60035 -85.53395 280 ft 2 kts 340°
2026-05-07 20:25 10.60021 -85.53390 280 ft 2 kts 340°
2026-05-07 20:26 10.60006 -85.53384 280 ft 2 kts 340°
2026-05-07 20:26 10.59992 -85.53380 281 ft 2 kts 340°
2026-05-07 20:26 10.59978 -85.53376 281 ft 2 kts
2026-05-07 20:26 10.59963 -85.53378 281 ft 2 kts 24°
2026-05-07 20:27 10.59951 -85.53387 281 ft 2 kts 45°
2026-05-07 20:27 10.59942 -85.53398 280 ft 1 kts 67°
2026-05-07 20:27 10.59940 -85.53404 280 ft 0 kts 71°
2026-05-07 20:30 10.59943 -85.53393 280 ft 3 kts 80°
2026-05-07 20:30 10.59935 -85.53362 281 ft 4 kts 119°
2026-05-07 20:30 10.59917 -85.53342 282 ft 3 kts 143°
2026-05-07 20:31 10.59893 -85.53330 283 ft 3 kts 157°
2026-05-07 20:31 10.59861 -85.53319 283 ft 7 kts 161°
2026-05-07 20:31 10.59811 -85.53301 284 ft 7 kts 161°
2026-05-07 20:31 10.59764 -85.53304 284 ft 7 kts 220°
2026-05-07 20:32 10.59735 -85.53357 284 ft 10 kts 249°
2026-05-07 20:32 10.59646 -85.53602 281 ft 84 kts 249°
2026-05-07 20:32 10.59321 -85.54503 383 ft 175 kts 250°
2026-05-07 20:32 10.58910 -85.55643 1525 ft 178 kts 249°
2026-05-07 20:33 10.58456 -85.56825 2442 ft 191 kts 247°
2026-05-07 20:33 10.57938 -85.58121 3230 ft 211 kts 248°
2026-05-07 20:33 10.57365 -85.59558 4108 ft 231 kts 248°
2026-05-07 20:33 10.56739 -85.61131 5014 ft 254 kts 248°
2026-05-07 20:34 10.56064 -85.62823 5996 ft 273 kts 247°
2026-05-07 20:34 10.55033 -85.64497 7052 ft 289 kts 223°
2026-05-07 20:34 10.53326 -85.65516 8222 ft 293 kts 192°
2026-05-07 20:34 10.51326 -85.65580 9503 ft 292 kts 164°
2026-05-07 20:35 10.49550 -85.64704 10659 ft 295 kts 137°
2026-05-07 20:35 10.48314 -85.63027 11528 ft 311 kts 110°
2026-05-07 20:35 10.48028 -85.60806 12419 ft 329 kts 83°
2026-05-07 20:35 10.48844 -85.58611 13313 ft 350 kts 57°
2026-05-07 20:36 10.50657 -85.56928 14384 ft 367 kts 32°
2026-05-07 20:36 10.53056 -85.55971 15601 ft 378 kts 18°
2026-05-07 20:36 10.55667 -85.55559 16908 ft 384 kts
2026-05-07 20:36 10.58353 -85.55663 18059 ft 395 kts 355°
2026-05-07 20:37 10.61069 -85.56246 19120 ft 406 kts 348°
2026-05-07 20:37 10.63794 -85.57046 20200 ft 414 kts 346°
2026-05-07 20:37 10.66545 -85.57961 21263 ft 421 kts 345°
2026-05-07 20:37 10.69336 -85.58959 22289 ft 427 kts 344°
2026-05-07 20:38 10.72135 -85.60004 23304 ft 434 kts 343°
2026-05-07 20:38 10.74977 -85.61094 24289 ft 440 kts 342°
2026-05-07 20:38 10.77877 -85.62227 25309 ft 446 kts 342°
2026-05-07 20:38 10.80775 -85.63374 26320 ft 451 kts 342°
2026-05-07 20:39 10.83677 -85.64532 27312 ft 455 kts 341°
2026-05-07 20:39 10.86664 -85.65730 28265 ft 461 kts 341°
2026-05-07 20:39 10.89659 -85.66936 29187 ft 467 kts 341°
2026-05-07 20:39 10.92679 -85.68157 30229 ft 469 kts 341°
2026-05-07 20:40 10.95674 -85.69371 31369 ft 467 kts 341°
2026-05-07 20:40 10.98684 -85.70592 32604 ft 461 kts 341°
2026-05-07 20:40 11.01619 -85.71784 33966 ft 454 kts 340°
2026-05-07 20:40 11.04548 -85.72974 35230 ft 448 kts 340°
2026-05-07 20:41 11.07433 -85.74146 35806 ft 449 kts 340°
2026-05-07 20:41 11.13407 -85.76575 35855 ft 469 kts 340°
2026-05-07 20:41 11.16479 -85.77824 35858 ft 484 kts 340°
2026-05-07 20:42 11.19691 -85.79131 35861 ft 498 kts 339°
2026-05-07 20:42 11.26205 -85.81775 35859 ft 503 kts 339°
2026-05-07 20:43 11.32733 -85.84417 35850 ft 503 kts 340°
2026-05-07 20:43 11.39237 -85.87052 35849 ft 503 kts 340°
2026-05-07 20:44 11.45769 -85.89699 35849 ft 503 kts 340°
2026-05-07 20:44 11.52252 -85.92327 35848 ft 502 kts 340°
2026-05-07 20:45 11.58774 -85.94974 35855 ft 503 kts 340°
2026-05-07 20:45 11.65304 -85.97623 35855 ft 503 kts 340°
2026-05-07 20:46 11.71829 -86.00274 35849 ft 504 kts 340°
2026-05-07 20:46 11.78345 -86.02921 35840 ft 502 kts 340°
2026-05-07 20:47 11.84882 -86.05579 35848 ft 502 kts 340°
2026-05-07 20:47 11.90815 -86.07992 35861 ft 502 kts 340°
2026-05-07 20:48 11.97349 -86.10651 35868 ft 503 kts 340°
2026-05-07 20:48 12.03867 -86.13304 35881 ft 503 kts 340°
2026-05-07 20:49 12.10397 -86.15964 35879 ft 503 kts 339°
2026-05-07 20:49 12.16579 -86.19352 35876 ft 505 kts 326°
2026-05-07 20:50 12.22312 -86.23556 35857 ft 506 kts 325°
2026-05-07 20:50 12.27988 -86.27745 35840 ft 505 kts 326°
2026-05-07 20:51 12.33700 -86.31961 35839 ft 506 kts 326°
2026-05-07 20:51 12.39443 -86.36202 35831 ft 507 kts 325°
2026-05-07 20:52 12.45176 -86.40437 35832 ft 506 kts 325°
2026-05-07 20:52 12.50881 -86.44653 35819 ft 506 kts 325°
2026-05-07 20:53 12.56577 -86.48863 35828 ft 506 kts 325°
2026-05-07 20:53 12.62349 -86.53134 35833 ft 505 kts 325°
2026-05-07 20:54 12.67958 -86.57287 35008 ft 494 kts 325°
2026-05-07 20:54 12.70768 -86.59367 33470 ft 507 kts 326°
2026-05-07 20:54 12.73668 -86.61513 31430 ft 529 kts 326°
2026-05-07 20:54 12.76656 -86.63725 29938 ft 537 kts 326°
2026-05-07 20:55 12.79667 -86.65958 29203 ft 529 kts 326°
2026-05-07 20:55 12.82607 -86.68140 28762 ft 517 kts 326°
2026-05-07 20:55 12.85510 -86.70294 28212 ft 508 kts 327°
2026-05-07 20:55 12.88344 -86.72398 27641 ft 500 kts 326°
2026-05-07 20:56 12.91120 -86.74458 27367 ft 485 kts 327°
2026-05-07 20:56 12.93821 -86.76465 27243 ft 468 kts 327°
2026-05-07 20:56 12.96407 -86.78391 27102 ft 453 kts 327°
2026-05-07 20:56 12.98941 -86.80298 26719 ft 446 kts 327°
2026-05-07 20:57 13.01420 -86.82164 26151 ft 443 kts 327°
2026-05-07 20:57 13.03907 -86.84036 25549 ft 441 kts 326°
2026-05-07 20:57 13.06356 -86.85881 24966 ft 438 kts 327°
2026-05-07 20:57 13.08805 -86.87725 24390 ft 436 kts 326°
2026-05-07 20:58 13.11260 -86.89574 23800 ft 434 kts 327°
2026-05-07 20:58 13.13682 -86.91400 23205 ft 431 kts 326°
2026-05-07 20:58 13.16070 -86.93190 22638 ft 428 kts 327°
2026-05-07 20:58 13.18502 -86.94984 22046 ft 425 kts 327°
2026-05-07 20:59 13.20869 -86.96729 21473 ft 423 kts 327°
2026-05-07 20:59 13.23267 -86.98498 20876 ft 420 kts 327°
2026-05-07 20:59 13.25623 -87.00236 20286 ft 418 kts 327°
2026-05-07 20:59 13.27963 -87.01965 19710 ft 415 kts 327°
2026-05-07 21:00 13.30306 -87.03696 19117 ft 412 kts 326°
2026-05-07 21:00 13.32625 -87.05410 18518 ft 410 kts 326°
2026-05-07 21:00 13.34922 -87.07107 17924 ft 407 kts 326°
2026-05-07 21:00 13.37231 -87.08815 17307 ft 405 kts 326°
2026-05-07 21:01 13.39505 -87.10497 16684 ft 403 kts 326°
2026-05-07 21:01 13.41751 -87.12159 16088 ft 400 kts 326°
2026-05-07 21:01 13.44006 -87.13828 15490 ft 397 kts 326°
2026-05-07 21:01 13.46248 -87.15489 14905 ft 394 kts 326°
2026-05-07 21:02 13.48450 -87.17119 14311 ft 391 kts 326°
2026-05-07 21:02 13.50623 -87.18729 13719 ft 387 kts 326°
2026-05-07 21:02 13.52811 -87.20351 13171 ft 383 kts 326°
2026-05-07 21:02 13.54950 -87.21935 12612 ft 379 kts 326°
2026-05-07 21:03 13.57085 -87.23518 12037 ft 376 kts 326°
2026-05-07 21:03 13.59233 -87.25033 11471 ft 371 kts 332°
2026-05-07 21:03 13.61577 -87.26073 10919 ft 364 kts 345°
2026-05-07 21:03 13.64023 -87.26541 10593 ft 350 kts 355°
2026-05-07 21:04 13.66390 -87.26804 10498 ft 338 kts 356°
2026-05-07 21:04 13.68724 -87.27035 10400 ft 333 kts 357°
2026-05-07 21:04 13.71003 -87.27218 10252 ft 321 kts 358°
2026-05-07 21:04 13.73213 -87.27371 10117 ft 309 kts 358°
2026-05-07 21:05 13.75321 -87.27505 9994 ft 297 kts 359°
2026-05-07 21:05 13.77362 -87.27629 9862 ft 287 kts 358°
2026-05-07 21:05 13.79306 -87.27747 9724 ft 279 kts 358°
2026-05-07 21:05 13.81248 -87.27863 9579 ft 277 kts 358°
2026-05-07 21:06 13.83178 -87.27978 9442 ft 277 kts 358°
2026-05-07 21:06 13.85126 -87.28095 9308 ft 276 kts 358°
2026-05-07 21:06 13.87023 -87.28074 9162 ft 275 kts 11°
2026-05-07 21:06 13.88895 -87.27575 9024 ft 274 kts 18°
2026-05-07 21:07 13.90711 -87.26974 8901 ft 272 kts 19°
2026-05-07 21:07 13.92497 -87.26372 8777 ft 271 kts 19°
2026-05-07 21:07 13.94301 -87.25770 8649 ft 270 kts 19°
2026-05-07 21:07 13.96105 -87.25169 8524 ft 270 kts 19°
2026-05-07 21:08 13.97895 -87.24573 8407 ft 270 kts 19°
2026-05-07 21:08 13.99677 -87.23976 8291 ft 270 kts 19°
2026-05-07 21:08 14.01476 -87.23370 8141 ft 270 kts 19°
2026-05-07 21:08 14.03267 -87.22765 8040 ft 269 kts 20°
2026-05-07 21:09 14.04991 -87.21988 8028 ft 271 kts 27°
2026-05-07 21:09 14.06671 -87.21104 8021 ft 270 kts 28°
2026-05-07 21:09 14.08354 -87.20214 8019 ft 270 kts 28°
2026-05-07 21:09 14.10042 -87.19322 8014 ft 271 kts 28°
2026-05-07 21:10 14.11719 -87.18436 8011 ft 271 kts 28°
2026-05-07 21:10 14.13395 -87.17555 8007 ft 271 kts 28°
2026-05-07 21:10 14.15084 -87.16670 8001 ft 271 kts 28°
2026-05-07 21:10 14.16781 -87.15781 7998 ft 271 kts 28°
2026-05-07 21:11 14.18464 -87.14905 7993 ft 271 kts 28°
2026-05-07 21:11 14.20152 -87.14024 7983 ft 270 kts 28°
2026-05-07 21:11 14.23505 -87.12266 7794 ft 268 kts 28°
2026-05-07 21:12 14.25181 -87.11430 7429 ft 268 kts 20°
2026-05-07 21:12 14.26987 -87.11243 7290 ft 260 kts 352°
2026-05-07 21:12 14.28621 -87.11958 7243 ft 249 kts 323°
2026-05-07 21:12 14.29697 -87.13279 7204 ft 238 kts 297°
2026-05-07 21:13 14.30112 -87.14869 7176 ft 223 kts 272°
2026-05-07 21:13 14.29770 -87.16366 7069 ft 211 kts 239°
2026-05-07 21:13 14.28775 -87.17384 6944 ft 203 kts 205°
2026-05-07 21:13 14.27457 -87.17963 6864 ft 202 kts 200°
2026-05-07 21:14 14.26161 -87.18492 6773 ft 201 kts 199°
2026-05-07 21:14 14.24851 -87.19025 6693 ft 201 kts 199°
2026-05-07 21:14 14.23543 -87.19557 6633 ft 201 kts 199°
2026-05-07 21:14 14.22232 -87.20091 6558 ft 201 kts 199°
2026-05-07 21:15 14.20934 -87.20618 6488 ft 201 kts 199°
2026-05-07 21:15 14.19613 -87.21088 6285 ft 202 kts 195°
2026-05-07 21:15 14.18248 -87.21508 5929 ft 201 kts 195°
2026-05-07 21:15 14.16944 -87.21808 5599 ft 190 kts 177°
2026-05-07 21:16 14.15653 -87.21616 5304 ft 185 kts 167°
2026-05-07 21:16 14.14381 -87.21371 5009 ft 183 kts 167°
2026-05-07 21:16 14.13147 -87.21139 4730 ft 182 kts 167°
2026-05-07 21:16 14.11903 -87.20903 4447 ft 182 kts 167°
2026-05-07 21:17 14.10725 -87.20683 4144 ft 160 kts 169°
2026-05-07 21:17 14.09656 -87.20637 3901 ft 147 kts 182°
2026-05-07 21:17 14.08647 -87.20810 3661 ft 148 kts 194°
2026-05-07 21:17 14.07674 -87.21162 3442 ft 145 kts 197°
2026-05-07 21:18 14.06731 -87.21492 3281 ft 142 kts 196°
2026-05-07 21:18 14.05936 -87.21770 3305 ft 99 kts 199°
2026-05-07 21:18 14.05487 -87.21931 3328 ft 30 kts 199°
2026-05-07 21:18 14.05332 -87.21990 3340 ft 10 kts 209°
2026-05-07 21:19 14.05319 -87.22038 3341 ft 3 kts 302°